遥感四十三号01组-J (YAOGAN-43 O1J)

导读

YAOGAN-43 O1J即遥感四十三号01组卫星,是中国于北京时间2024年8月16日15时35分,在西昌卫星发射中心通过长征四号乙运载火箭发射升空的人造卫星。该卫星顺利进入预定轨道,发射任务圆满成功,主要用于开展低轨星座系统新技术试验,此次发射是长征系列运载火箭的第531次飞行。

基本信息
目录编号:
60466
目录名称:
YAOGAN-43 O1J
国际标识:
2024-148J
轨道中心:
EARTH
卫星名称:
遥感四十三号01组-J (YAOGAN-43 O1J)
卫星全名:
遥感四十三号01组-J (YAOGAN-43 O1J)
卫星状态:
在轨 (已飞行756 天)
发射日期:
2024-08-16 UTC
国别 :
中国 (CN)
星等 :
--
该卫星已列入 空间交会检测服务 Space Conjunction Data Service (SCDS) ,当前飞行风险评估等级: 无高风险
轨道信息
数据来源 国际轨道数据 AOE轨道数据
星历时间 2026-09-10T21:35:37+0800
16小时前
查看轨道信息
2026-09-05T13:00:00+0800
6天前
查看轨道信息
半长轴 6829.015km 6829.354km
偏心率 0.0006608 0.0007182
轨道倾角 34.992° 34.988°
近地点辐角 321.175° 275.317°
升交点赤经 304.792° 339.318°
平近点角 38.849° 242.301°
近地点 446.365km 446.312km
远地点 455.391km 456.122km
周期 93.605分钟 93.611分钟
每日圈数 15.383875 15.382727
详细信息
运营商:
中国空间技术研究院
运营商所在国:
中国
制造商(研发单位):
中国空间技术研究院
制造商所在国:
中国
使用方式:
暂无
卫星简介
遥感四十三号卫星组分别由航天科技集团五院和八院等抓总研制,主要用于开展低轨星座系统新技术试验。
2D轨道图
3D轨道图
轨道高度分析图
轨道倾角分析图
轨道综合分析图
查看轨道综合分析图
与全量物体交会距离演化趋势
与全量物体交会风险概率演化趋势